Location: Caltech
(34.1382°N, 118.1253°W)
Time: 07:44:06
(UTC-08:00)

Hamsat - Visible Passes

Search period start: 19 December 2014 00:00
Search period end: 29 December 2014 00:00
Orbit: 593 x 625 km, 97.6° (Epoch: 19 December)

Date Brightness Start Highest point End Pass type
(mag) Time Alt. Az. Time Alt. Az. Time Alt. Az.
19 Dec ? 05:45:55 10° N 05:50:13 64° WNW 05:54:26 10° SSW visible
19 Dec ? 18:14:58 10° W 18:15:18 10° W 18:15:37 10° W visible
20 Dec ? 04:26:02 10° ENE 04:27:57 13° E 04:29:51 10° ESE visible
20 Dec ? 05:59:57 10° N 06:04:02 43° WNW 06:08:05 10° SW visible
21 Dec ? 04:38:53 10° NE 04:41:56 19° E 04:44:57 10° SE visible
21 Dec ? 06:14:05 10° NNW 06:17:50 29° WNW 06:21:32 10° SW visible
22 Dec ? 04:52:12 10° NE 04:55:53 27° E 04:59:30 10° SSE visible
22 Dec ? 17:16:34 10° S 17:20:41 45° W 17:24:52 10° NNW visible
23 Dec ? 05:05:44 10° NNE 05:09:48 40° E 05:13:47 10° SSE visible
23 Dec ? 17:30:47 10° SSW 17:34:35 30° W 17:38:26 10° NW visible
24 Dec ? 05:19:24 10° NNE 05:23:40 60° E 05:27:52 10° S visible
24 Dec ? 17:45:14 10° SW 17:48:30 21° W 17:51:49 10° NW visible
25 Dec ? 05:33:12 10° NNE 05:37:31 90° ENE 05:41:45 10° SSW visible
25 Dec ? 18:00:04 10° SW 18:02:27 15° W 18:04:51 10° WNW visible
26 Dec ? 05:47:05 10° N 05:51:19 60° WNW 05:55:29 10° SSW visible
27 Dec ? 04:26:57 10° ENE 04:29:01 13° E 04:31:05 10° ESE visible
27 Dec ? 06:01:04 10° N 06:05:05 40° WNW 06:09:03 10° SW visible
28 Dec ? 04:39:50 10° NE 04:42:57 20° E 04:46:01 10° SE visible
28 Dec ? 06:15:11 10° NNW 06:18:49 28° WNW 06:22:25 10° SW visible
